Hamilton Airport, Ontario

6:08 AM EST on November 19, 2017 (GMT -0500)
Hamilton Airport

Weather History for CYHM - March, 2013

Change the Weather History Date:

Tuesday, March 12, 2013

  Actual Average Record
Temperature  
Mean Temperature 34 °F -  
Max Temperature 37 °F 44 °F 60 °F (2006)
Min Temperature 32 °F 28 °F 6 °F (2014)
Degree Days  
Heating Degree Days 30    
Moisture  
Dew Point 32 °F    
Average Humidity 87    
Maximum Humidity 93    
Minimum Humidity 80    
Precipitation  
Precipitation 0.00 in 0.10 in - ()
Sea Level Pressure  
Sea Level Pressure 29.81 in    
Wind  
Wind Speed 15 mph ()    
Max Wind Speed 21 mph    
Max Gust Speed 28 mph    
Visibility 11.5 miles    
Events Rain , Snow    
Averages and records for this station are not official NWS values.
T = Trace of Precipitation, MM = Missing Value Source: Averaged Metar Reports

Daily Weather History Graph

Daily Weather History Graph

Search for Another Location

Airport or City:

Trip Planner

Search our weather history database for the weather conditions in past years. The results will help you decide how hot, cold, wet, or windy it might be!

Date:

Astronomy

Mar. 12, 2013 Rise Set
Actual Time 7:36 AM EDT 7:22 PM EDT
Civil Twilight 7:08 AM EDT 7:51 PM EDT
Nautical Twilight 6:35 AM EDT 8:24 PM EDT
Astronomical Twilight 6:01 AM EDT 8:57 PM EDT
Moon 7:39 AM EDT (3/12) 8:39 PM EDT (3/12)
Length of Visible Light 12h 42m
Length of Day
11h 46m
New Moon, 1% of the Moon is Illuminated
Mar 12
New Moon
Mar 19
First Quarter
Mar 27
Full
Apr 3
Last Quarter
Apr 10
New

Hourly Weather History & Observations

Time (EDT) Temp. Windchill Dew Point Humidity Pressure Visibility Wind Dir Wind Speed Gust Speed Precip Events Conditions
12:00 AM 41.0 °F 33.1 °F 37.4 °F 87% 29.67 in 15.0 mi SSW 15.0 mph - N/A   Overcast
1:00 AM 39.2 °F 29.6 °F 35.6 °F 87% 29.69 in 15.0 mi SW 19.6 mph - N/A   Scattered Clouds
2:00 AM 37 °F - 33 °F 80% 29.70 in 15 mi SW 18.4 mph - -   Partly Cloudy
2:00 AM 37.4 °F 27.5 °F 33.8 °F 87% 29.69 in 15.0 mi SW 18.4 mph - N/A   Partly Cloudy
3:00 AM 37.4 °F 27.2 °F 33.8 °F 87% 29.73 in 15.0 mi SW 19.6 mph 25.3 mph N/A   Partly Cloudy
4:00 AM 35.6 °F 25.2 °F 32.0 °F 87% 29.72 in 15.0 mi SW 18.4 mph 25.3 mph N/A   Scattered Clouds
6:00 AM 35.6 °F 25.2 °F 32.0 °F 87% 29.76 in 15.0 mi SW 18.4 mph - N/A   Overcast
7:00 AM 35.6 °F 26.6 °F 32.0 °F 87% 29.78 in 15.0 mi SW 13.8 mph 19.6 mph N/A   Overcast
8:00 AM 35 °F - 32 °F 83% 29.80 in 15 mi SW 16.1 mph - -   Overcast
8:00 AM 35.6 °F 26.2 °F 32.0 °F 87% 29.80 in 15.0 mi SW 15.0 mph 23.0 mph N/A   Overcast
9:00 AM 35.6 °F 26.6 °F 32.0 °F 87% 29.81 in 15.0 mi SW 13.8 mph 20.7 mph N/A   Overcast
10:00 AM 35.6 °F 25.5 °F 32.0 °F 87% 29.81 in 15.0 mi SW 17.3 mph - N/A   Overcast
10:41 AM 33.8 °F 23.2 °F 32.0 °F 93% 29.82 in 7.0 mi SW 17.3 mph - N/A Snow Light Snow Showers
11:00 AM 33.8 °F 23.9 °F 32.0 °F 93% - 8.0 mi SW 15.0 mph - N/A Snow Light Snow Showers
11:38 AM 33.8 °F 22.8 °F 32.0 °F 93% 29.82 in 8.0 mi SW 18.4 mph - N/A   Overcast
12:00 PM 35.6 °F 27.1 °F 32.0 °F 87% 29.82 in 12.0 mi SW 12.7 mph 23.0 mph N/A   Overcast
1:00 PM 35.6 °F 25.5 °F 32.0 °F 87% 29.82 in 15.0 mi SW 17.3 mph - N/A   Overcast
2:00 PM 35 °F - 32 °F 83% 29.83 in 12 mi WSW 17.3 mph - - Rain Light Rain Showers
2:00 PM 35.6 °F 25.9 °F 32.0 °F 87% 29.82 in 12.0 mi WSW 16.1 mph 23.0 mph N/A Rain Light Rain Showers
3:00 PM 37.4 °F 27.5 °F 32.0 °F 81% 29.81 in 15.0 mi SW 18.4 mph 25.3 mph N/A   Overcast
4:00 PM 35.6 °F 24.5 °F 30.2 °F 81% 29.82 in 12.0 mi WSW 20.7 mph - N/A   Overcast
4:49 PM 33.8 °F 22.5 °F 30.2 °F 87% 29.84 in 6.0 mi SW 19.6 mph 27.6 mph N/A Snow Light Snow Showers
5:00 PM 33.8 °F 24.3 °F 32.0 °F 93% 29.85 in 5.0 mi SW 13.8 mph 21.9 mph N/A Snow Light Snow Showers
6:00 PM 33.8 °F 23.5 °F 30.2 °F 87% 29.85 in 8.0 mi SW 16.1 mph - N/A Snow Light Snow Showers
7:00 PM 33.8 °F 23.2 °F 30.2 °F 87% 29.86 in 8.0 mi SW 17.3 mph 25.3 mph N/A Snow Light Snow Showers
8:00 PM 33 °F - 30 °F 82% 29.89 in 7 mi SW 15.0 mph - - Snow Light Snow Showers
8:00 PM 33.8 °F 23.2 °F 30.2 °F 87% 29.88 in 7.0 mi SW 17.3 mph - N/A Snow Light Snow Showers
9:00 PM 33.8 °F 24.8 °F 30.2 °F 87% 29.89 in 8.0 mi WSW 12.7 mph 20.7 mph N/A Snow Light Snow Showers
10:00 PM 32.0 °F 21.6 °F 28.4 °F 87% 29.90 in 8.0 mi SW 15.0 mph - N/A Snow Light Snow Showers
11:00 PM 32.0 °F 22.5 °F 28.4 °F 87% 29.90 in 8.0 mi WSW 12.7 mph 19.6 mph N/A Snow Light Snow Showers